{"data":{"norad_id":60362,"epoch":"2026-09-21T19:39:39.959136Z","epoch_age_seconds":71597,"freshness":"FRESH","line1":"1 60362U 24138H   26264.81921249  .00000530  00000+0  26817-4 0  9996","line2":"2 60362  53.1602 117.3371 0001477  89.0123 271.1049 15.34392284120661","mean_motion":15.34392284,"eccentricity":0.0001477,"inclination_deg":53.1602,"raan_deg":117.3371,"arg_perigee_deg":89.0123,"mean_anomaly_deg":271.1049,"bstar":2.6817e-5,"rev_number":12066,"period_min":93.848230013649,"perigee_km":461.7157783905,"apogee_km":463.73656937207,"semimajor_km":6840.8631738813,"source":"CELESTRAK","updated_at":"2026-09-22T09:00:49.225021Z"}}